Terminal Aerodrome Forecast
Issued by NWS

Home | Current Version | Previous Version | Text Only | Print | Product List | Glossary On
Versions: 1 2 3 4 5 6 7 8 9 10 11 12 13 14 15 16 17 18 19
866
FTUS46 KLOX 101405 AAA
TAFSBA
TAF AMD
KSBA 101405Z 1014/1112 VRB03KT 1/4SM FG VV001
     FM101600 VRB03KT 2SM BR BKN003 OVC010
     FM101800 VRB03KT 4SM BR BKN007 OVC015
     FM102100 25008KT P6SM SCT015 BKN030
     FM110300 VRB03KT P6SM OVC015 PROB30 1104/1110 -SHRA=

USA.gov is the U.S. government's official web portal to all federal, state and local government web resources and services.